Voltar ao catálogo

FENGYUN 1C DEB

AtivoSSO
NORAD 30541·DEBRIS·🇨🇳 China

Lançado May 10, 1999 de Taiyuan Satellite Launch Center

Loading…

Próximas Passagens (próximas 24 horas)

TLE

AtualizadoSource: Space-Track

Época: Sep 14, 2026, 02:14 UTC

1 30541U 99025AKF 26257.09340801  .00001194  00000-0  53711-3 0  9990
2 30541  98.6722 305.0672 0015976   8.9866 351.1596 14.24119591 12399

Acompanhe FENGYUN 1C DEB em tempo real com AllMySat

Download on the App Store